Showing default

STARS-AO, 43679

Orbit data source: Space-Track

STARS-AO, 43679 is a payload satellite owned by Shizuoka U (JP) in SSO that was launched on Mon, 29 Oct 2018 UTC via an H-IIA 202 launch vehicle from the Tanegashima Space Center (TNSTA). Payload-class satellites include a variety of spacecraft equipped with specific instruments for various scientific and technological missions. These include communications satellites like Starlink; space stations such as the ISS; scientific satellites like the Hubble; Earth observation satellites from companies like Planet Labs, Umbra, and HawkEye 360; GPS; miniature CubeSats for education and research; and military/defense satellites.

Loading next visibility...
Identifier
43679, 2018-084J
Orbit
SSO
Country
Flag of JPJP / JPN
Related business
Manufacturer
Shizuoka U
Mission
Operational Amateur Astronomy
Bus & Motor
CUBESAT 1U, Unknown motor
Mass
1.4 kg wet, 1.4 kg dry
Launch date (UTC)
2018-10-29 (7 years ago)
Launch vehicle
H-IIA 202
Launch site
Tanegashima Space Center (TNSTA)
Object type
Payload
Rocket body
Debris
Shape & HBR
Box, 0.1 m
Radar Cross Section
0.015 m², Small (<0.1 m²)

Expand to show TLE details & history
Last TLE update: 17 hours ago

TLE from 17 hours ago
0 STARS-AO
1 43679U 18084J   25348.83360816  .00006832  00000-0  37705-3 0  9991
2 43679  98.0642 186.5656 0003516  75.2329 284.9290 15.14299257389548
Epoch: 2025-12-14T20:00Z
TLE epoch observation values (Epoch: 2025-12-14T20:00:23.745Z)
Latitude
-0.00004°
Longitude
162.72582°
Altitude
525.545 km
Speed
7.601 km/s
True Right ascension
12h 26m 15s
True Declination
0° 00' 00"
Sunlit
Object was in daylight at epoch
Visualization orbit readout
Latitude
Unknown
Longitude
Unknown
Altitude
Unknown
Speed
Unknown
Apparent Right ascension
Unknown
Apparent Declination
Unknown
Sunlit
N/A
Visualization observer readout
Local Sidereal Time
12:01:21
Azimuth
Unknown
Elevation
Unknown
Doppler factor
Unknown
Orbital elements
Apogee altitude
522.535 km
Perigee altitude
517.684 km
Semi-major axis
6,898.247 km
Eccentricity
0.00035
Inclination
98.0642°
RAAN
186.5656°
Arg. of periapsis
75.2329°
True anomaly
284.89007°
Mean anomaly
284.929°
Eccentric anomaly
284.90953°
Mean motion
3.78822 °/min
Orbital period
95.03 mins
BSTAR
0.00037705
Loading maneuver chart data...
Computing Atmospheric mass density...
Loading historical data...
Loading historical data...
Loading historical data...
Loading historical data...
Loading historical data...
Loading historical data...
Loading historical data...

Documentation

Showing up to 5 results
|